{"data":{"norad_id":68249,"epoch":"2026-05-24T21:40:12.065952Z","epoch_age_seconds":93470,"freshness":"FRESH","line1":"1 68249U 26054T   26144.90291743  .00034552  00000+0  62595-3 0  9996","line2":"2 68249  53.1590 299.1060 0000850  58.9053 301.2039 15.49336256 10715","mean_motion":15.49336256,"eccentricity":8.5e-5,"inclination_deg":53.159,"raan_deg":299.106,"arg_perigee_deg":58.9053,"mean_anomaly_deg":301.2039,"bstar":0.00062595,"rev_number":1071,"period_min":92.943026048956,"perigee_km":418.08883967685,"apogee_km":419.24429628341,"semimajor_km":6796.8035679801,"source":"CELESTRAK","updated_at":"2026-05-25T13:38:21.886658Z"}}